Шереметьевский

Россия / Московская область     55°58′58″N   37°29′48″E
темп.,
°C
ветер,
м/с
пор.,
м/с
влажн.,
%
обл.,
%
осадки,
мм/ч
давл.,
гПа
погр.,
м
18 октября, пн
пн1800:00+6юз488269 0.0 1011606
03:00+6зюз498175 0.0 1010606
06:00+5юз4983100 0.0 1009786
09:00+5зюз61287100 0.4 10081162
12:00+6зсз696914 0.7 10091183
15:00+7з610554 0.8 10091587
18:00+5з510705 0.0 1010843
21:00+3з411785 0.0 1011600
19 октября, вт
вт1900:00+3з4108197 0.0 1012528
03:00+2з4994100 0.0 1013470
06:00+1зсз498750 0.3 1014509
09:00+1сз488780 0.3 1015555
12:00+2сз467990 0.1 1016748
15:00+4сз4567100 0.2 10161034
18:00+2зсз3582100 0.0 1017508
21:00+2зсз598299 1.0 1017784
20 октября, ср
ср2000:00+1сз51196100 0.3 1019535
03:00+1сз4774100 0.4 1021917
06:00+1сз356498 0.0 1022576
09:000з3377100 0.0 1023274
12:00+2юз346332 0.0 1022728
15:00+3юз4654100 0.0 1020863
18:00+2ююз4958100 0.0 1018564
21:00+2ю61364100 0.0 1014715
21 октября, чт
чт2100:00+3ю61587100 0.6 1010739
03:00+4ююз71591100 3.3 1006788
06:00+5ююз71695100 1.7 1004682
09:00+7юз71696100 2.1 1002645
12:00+9юз71691100 0.3 1001650
15:00+12юз61583100 0.3 1000770
18:00+11юз71682100 0.0 999709
21:00+11юз81885100 0.1 997844
22 октября, пт
пт2200:00+11юз81772100 0.0 9961101
03:00+11юз71675100 0.1 996910
06:00+10зюз8167516 0.0 9961380
09:00+11зюз81662100 0.0 9971561
12:00+11зюз9166378 0.1 9991588
15:00+11зюз7146413 0.1 10021514
18:00+10зюз6127236 0.0 1005852
21:00+9зюз41179100 0.0 1006635